Location: Palmerston North
(40.3500°S, 175.6170°E)
Time: 08:48:07
(UTC+13:00)

CZ-2D R/B - Visible Passes

Search period start: 20 October 2019 00:00
Search period end: 30 October 2019 00:00
Orbit: 523 x 538 km, 97.4° (Epoch: 18 October)

Date Brightness Start Highest point End Pass type
(mag) Time Alt. Az. Time Alt. Az. Time Alt. Az.
20 Oct 3.5 21:08:19 10° S 21:12:12 69° WSW 21:16:01 10° NNW visible
21 Oct 3.2 20:58:00 10° SSE 21:01:54 87° ENE 21:05:44 10° NNW visible
22 Oct 3.2 20:47:43 10° SSE 20:51:35 64° E 20:55:23 10° N visible
23 Oct 3.5 20:37:29 10° SSE 20:41:15 46° E 20:44:57 10° N visible
23 Oct 6.5 22:13:26 10° SW 22:15:10 13° WSW 22:16:54 10° W visible
24 Oct 3.9 20:27:20 10° SSE 20:30:55 34° E 20:34:26 10° NNE visible
24 Oct 6.3 22:02:30 10° SSW 22:04:58 16° WSW 22:07:25 10° WNW visible
25 Oct 4.3 20:17:15 10° SE 20:20:32 26° E 20:23:48 10° NNE visible
25 Oct 5.9 21:51:47 10° SSW 21:54:45 21° WSW 21:57:41 10° WNW visible
26 Oct 5.4 21:41:12 10° SSW 21:44:30 27° WSW 21:47:47 10° NW visible
27 Oct 4.9 21:30:41 10° S 21:34:15 35° WSW 21:37:47 10° NW visible
28 Oct 4.3 21:20:14 10° S 21:23:59 47° WSW 21:27:42 10° NNW visible
29 Oct 3.7 21:09:50 10° S 21:13:42 65° WSW 21:17:31 10° NNW visible
